EW2997 Weather Reports


time (UTC)temp
C
wind
direction
speed
KPH
gust
KPH
rain 1hr
cm
rain 24hr
cm
rain mn
cm
humidity
%
barometer
mb
20260901141811 25 257 1.6 1.6 0.00 0.00 0.00 81 1021.2
20260901134806 25 192 1.6 1.6 0.00 0.00 0.00 83 1021.2
20260901131805 24 189 0.0 0.0 0.00 0.00 0.00 88 1021.2
20260901124805 22 186 0.0 0.0 0.00 0.00 0.00 93 1021.2
20260901121805 21 186 0.0 0.0 0.00 0.00 0.00 94 1021.5
20260901114801 20 186 0.0 0.0 0.00 0.00 0.00 97 1021.5
20260901111756 20 186 0.0 0.0 0.00 0.00 0.00 97 1021.5
20260901104753 20 185 0.0 0.0 0.00 0.00 0.00 97 1021.2
20260901101751 20 185 0.0 0.0 0.00 0.00 0.00 97 1021.2
20260901094748 20 185 3.2 3.2 0.00 0.00 0.00 97 1020.8
20260901091748 20 185 0.0 0.0 0.00 0.00 0.00 97 1021.2
20260901084743 20 185 0.0 0.0 0.00 0.00 0.00 97 1021.2
20260901081740 20 185 0.0 0.0 0.00 0.00 0.00 97 1021.2
20260901074735 21 185 0.0 0.0 0.00 0.00 0.00 97 1021.2
20260901071730 20 186 0.0 0.0 0.00 0.00 0.00 97 1021.2
20260901064727 20 186 0.0 0.0 0.00 0.00 0.00 97 1021.2
20260901061726 20 186 0.0 0.0 0.00 0.00 0.00 97 1021.5
20260901054722 20 186 0.0 0.0 0.00 0.00 0.00 97 1021.9
20260901051722 20 186 0.0 0.0 0.00 0.00 0.00 97 1022.2
20260901044721 20 181 0.0 0.0 0.00 0.00 0.00 97 1021.5
20260901041716 20 185 0.0 0.0 0.00 0.00 0.00 97 1021.9
20260901034713 20 185 0.0 0.0 0.00 0.10 0.10 96 1022.2
20260901031713 20 185 0.0 0.0 0.00 0.10 0.10 96 1022.2
20260901024711 20 185 0.0 0.0 0.00 0.10 0.10 96 1022.5
20260901021707 20 185 0.0 0.0 0.00 0.10 0.10 96 1022.5
20260901014706 20 185 0.0 0.0 0.00 0.10 0.10 96 1022.9
20260901011702 20 185 0.0 0.0 0.00 0.10 0.10 96 1022.2
20260901004702 20 185 0.0 0.0 0.00 0.10 0.10 96 1021.9
20260901001659 20 185 0.0 0.0 0.00 0.10 0.10 96 1021.9
20260831234656 20 185 0.0 0.0 0.00 0.10 0.10 93 1021.9
20260831231653 21 185 0.0 0.0 0.00 0.10 0.10 91 1021.9
20260831224651 21 96 0.0 0.0 0.00 0.10 0.10 90 1021.9
20260831221647 21 116 3.2 3.2 0.00 0.10 0.10 87 1022.2
20260831214644 22 258 8.0 8.0 0.10 0.10 0.10 80 1022.9
20260831211641 26 210 3.2 3.2 0.00 0.00 0.00 76 1022.2
20260831204638 26 254 3.2 3.2 0.00 0.00 0.00 71 1022.5
20260831201636 26 260 6.4 6.4 0.00 0.00 0.00 75 1022.9
20260831194636 25 229 3.2 3.2 0.00 0.00 0.00 77 1022.9
20260831191631 26 216 3.2 3.2 0.00 0.00 0.00 74 1023.3
20260831184629 26 236 3.2 3.2 0.00 0.00 0.00 74 1023.3
20260831181625 26 234 3.2 3.2 0.00 0.00 0.00 73 1023.7
20260831174625 25 235 4.8 4.8 0.00 0.00 0.00 75 1023.7
20260831171621 25 138 3.2 3.2 0.00 0.00 0.00 77 1023.7
20260831164616 25 246 4.8 4.8 0.00 0.00 0.00 79 1024.0
20260831161613 25 240 3.2 3.2 0.00 0.00 0.00 76 1024.0
20260831154614 25 272 0.0 0.0 0.00 0.00 0.00 75 1024.0
20260831151611 24 260 3.2 3.2 0.00 0.00 0.00 77 1024.3
20260831144607 24 269 4.8 4.8 0.00 0.00 0.00 79 1024.3